Seward, AK

2:36 PM AKST on February 25, 2017 (GMT -0900)
Seward

Weather History for PAWD - September, 2012

Change the Weather History Date:

Saturday, September 29, 2012

  Actual Average Record
Temperature  
Mean Temperature 38 °F -  
Max Temperature 44 °F 50 °F 63 °F (2016)
Min Temperature 32 °F 40 °F 31 °F (1974)
Degree Days  
Heating Degree Days 28    
Moisture  
Dew Point 33 °F    
Average Humidity 88    
Maximum Humidity 100    
Minimum Humidity 67    
Precipitation  
Precipitation 0.04 in - - ()
Sea Level Pressure  
Sea Level Pressure 29.68 in    
Wind  
Wind Speed 3 mph (NNE)    
Max Wind Speed 7 mph    
Max Gust Speed -    
Visibility 10 miles    
Events Rain    
Averages and records for this station are not official NWS values.
T = Trace of Precipitation, MM = Missing Value Source: NWS Daily Summary

Daily Weather History Graph

Daily Weather History Graph

Search for Another Location

Airport or City:

Trip Planner

Search our weather history database for the weather conditions in past years. The results will help you decide how hot, cold, wet, or windy it might be!

Date:

Astronomy

Sep. 29, 2012 Rise Set
Actual Time 8:00 AM AKDT 7:33 PM AKDT
Civil Twilight 7:18 AM AKDT 8:15 PM AKDT
Nautical Twilight 6:29 AM AKDT 9:04 PM AKDT
Astronomical Twilight 5:37 AM AKDT 9:55 PM AKDT
Moon 6:56 PM AKDT (9/29) 7:49 AM AKDT (9/29)
Length of Visible Light 12h 56m
Length of Day
11h 33m
Full, 100% of the Moon is Illuminated
Sep 29
Full
Sep 29
Full
Oct 7
Last Quarter
Oct 15
New
Oct 21
First Quarter

Hourly Weather History & Observations

Time (AKDT) Temp. Windchill Dew Point Humidity Pressure Visibility Wind Dir Wind Speed Gust Speed Precip Events Conditions
12:14 AM 35.6 °F 32.8 °F 35.6 °F 100% 29.47 in 7.0 mi NNE 3.5 mph - 0.02 in Rain Rain
12:37 AM 35.6 °F 29.9 °F 33.8 °F 93% 29.47 in 10.0 mi North 6.9 mph - 0.03 in Rain Light Rain
12:44 AM 35.6 °F 31.7 °F 33.8 °F 93% 29.48 in 10.0 mi NNE 4.6 mph - 0.03 in Rain Light Rain
12:53 AM 36.0 °F 30.3 °F 34.0 °F 93% 29.48 in 10.0 mi NNE 6.9 mph - 0.03 in   Overcast
1:53 AM 36.0 °F 32.1 °F 34.0 °F 93% 29.50 in 10.0 mi NNE 4.6 mph - 0.00 in   Overcast
2:53 AM 35.1 °F - 34.0 °F 96% 29.52 in 10.0 mi Calm Calm - N/A   Overcast
3:53 AM 35.1 °F 32.2 °F 34.0 °F 96% 29.54 in 10.0 mi NNE 3.5 mph - N/A   Overcast
4:53 AM 33.1 °F - 32.0 °F 96% 29.56 in 10.0 mi Calm Calm - N/A   Partly Cloudy
5:53 AM 34.0 °F - 33.1 °F 96% 29.59 in 10.0 mi Calm Calm - N/A   Overcast
6:53 AM 34.0 °F - 33.1 °F 96% 29.61 in 10.0 mi Calm Calm - N/A   Overcast
7:53 AM 33.1 °F - 30.9 °F 92% 29.63 in 10.0 mi Calm Calm - N/A   Partly Cloudy
8:53 AM 32.0 °F - 30.9 °F 96% 29.66 in 10.0 mi Calm Calm - N/A   Clear
9:53 AM 36.0 °F - 34.0 °F 93% 29.69 in 10.0 mi Calm Calm - N/A   Partly Cloudy
10:53 AM 37.0 °F 34.5 °F 34.0 °F 89% 29.71 in 10.0 mi North 3.5 mph - N/A   Clear
11:53 AM 39.0 °F - 35.1 °F 86% 29.73 in 10.0 mi Calm Calm - N/A   Mostly Cloudy
12:53 PM 42.1 °F 40.2 °F 33.1 °F 70% 29.75 in 10.0 mi Variable 3.5 mph - N/A   Mostly Cloudy
1:53 PM 42.1 °F 39.2 °F 32.0 °F 67% 29.76 in 10.0 mi SSW 4.6 mph - N/A   Clear
2:53 PM 43.0 °F 41.3 °F 33.1 °F 68% 29.77 in 10.0 mi North 3.5 mph - 0.00 in Rain Light Rain
3:53 PM 42.1 °F 39.2 °F 34.0 °F 73% 29.78 in 10.0 mi South 4.6 mph - 0.00 in Rain Light Rain
5:53 PM 42.1 °F 40.2 °F 34.0 °F 73% 29.80 in 10.0 mi SSE 3.5 mph - N/A   Mostly Cloudy
6:08 PM 41.0 °F - 32.0 °F 70% 29.80 in 7.0 mi Calm Calm - 0.01 in Rain Light Rain
6:33 PM 39.2 °F - 33.8 °F 81% 29.80 in 10.0 mi Calm Calm - 0.01 in   Scattered Clouds
6:53 PM 39.0 °F 36.8 °F 35.1 °F 86% 29.81 in 10.0 mi ESE 3.5 mph - 0.01 in   Clear
7:53 PM 35.1 °F 32.2 °F 34.0 °F 96% 29.82 in 10.0 mi North 3.5 mph - N/A   Clear
8:53 PM 33.1 °F 28.7 °F 32.0 °F 96% 29.83 in 10.0 mi North 4.6 mph - N/A   Partly Cloudy
9:53 PM 34.0 °F 28.0 °F 33.1 °F 96% 29.84 in 10.0 mi North 6.9 mph - N/A   Partly Cloudy
10:53 PM 34.0 °F 28.0 °F 30.9 °F 89% 29.86 in 10.0 mi North 6.9 mph - N/A   Clear
11:53 PM 33.1 °F - 30.9 °F 92% 29.86 in 10.0 mi Calm Calm - N/A   Clear